Weather History for Dodge City, KS

Change the Weather History Date:

Monday, February 24, 2014

  Actual Average Record
Temperature  
Mean Temperature 29 °F -  
Max Temperature 44 °F 52 °F 79 °F (1976)
Min Temperature 14 °F 26 °F -6 °F (1913)
Degree Days  
Heating Degree Days 36    
Moisture  
Dew Point 17 °F    
Average Humidity 64    
Maximum Humidity 84    
Minimum Humidity 29    
Precipitation  
Precipitation 0.00 in - - ()
Sea Level Pressure  
Sea Level Pressure 30.20 in    
Wind  
Wind Speed 9 mph (ESE)    
Max Wind Speed 24 mph    
Max Gust Speed 29 mph    
Visibility 10 miles    
Events      
Averages and records for this station are not official NWS values.
T = Trace of Precipitation, MM = Missing Value Source: NWS Daily Summary

Daily Weather History Graph

Daily Weather History Graph

Search for Another Location

Airport:

Trip Planner

Search our weather history database for the weather conditions in past years. The results will help you decide how hot, cold, wet, or windy it might be!

Date:

Astronomy

Feb. 24, 2014 Rise Set
Actual Time 7:18 AM CST 6:28 PM CST
Civil Twilight 6:51 AM CST 6:55 PM CST
Nautical Twilight 6:21 AM CST 7:25 PM CST
Astronomical Twilight 5:50 AM CST 7:55 PM CST
Moon 3:15 AM CST (2/24) 1:34 PM CST (2/24)
Length of Visible Light 12h 03m
Length of Day
11h 10m
Waning Crescent, 28% of the Moon is Illuminated
Feb 24
Waning Crescent
Mar 1
New
Mar 8
First Quarter
Mar 16
Full
Mar 23
Last Quarter

Hourly Weather History & Observations

Time (CST) Temp. Windchill Dew Point Humidity Pressure Visibility Wind Dir Wind Speed Gust Speed Precip Events Conditions
12:52 AM 17.1 °F 8.7 °F 12.9 °F 84% 30.31 in 10.0 mi ENE 5.8 mph - N/A   Clear
1:52 AM 19.0 °F 8.2 °F 14.0 °F 81% 30.30 in 10.0 mi ENE 9.2 mph - N/A   Clear
2:52 AM 18.0 °F 6.9 °F 12.9 °F 81% 30.28 in 10.0 mi East 9.2 mph - N/A   Clear
3:52 AM 17.1 °F 8.7 °F 12.0 °F 81% 30.27 in 10.0 mi ESE 5.8 mph - N/A   Clear
4:52 AM 15.1 °F 7.7 °F 10.9 °F 84% 30.27 in 10.0 mi East 4.6 mph - N/A   Clear
5:52 AM 14.0 °F 6.5 °F 10.0 °F 84% 30.26 in 10.0 mi ESE 4.6 mph - N/A   Clear
6:52 AM 14.0 °F 5.1 °F 9.0 °F 80% 30.27 in 10.0 mi East 5.8 mph - N/A   Clear
7:52 AM 16.0 °F 8.8 °F 12.0 °F 84% 30.27 in 10.0 mi ESE 4.6 mph - N/A   Clear
8:52 AM 21.0 °F 10.6 °F 15.1 °F 78% 30.28 in 10.0 mi SE 9.2 mph - N/A   Clear
9:52 AM 24.1 °F 13.1 °F 17.1 °F 75% 30.25 in 10.0 mi SSE 11.5 mph - N/A   Clear
10:52 AM 30.0 °F 20.0 °F 18.0 °F 61% 30.23 in 10.0 mi SSE 12.7 mph - N/A   Clear
11:52 AM 36.0 °F 27.1 °F 19.0 °F 50% 30.19 in 10.0 mi South 13.8 mph - N/A   Clear
12:52 PM 39.9 °F 31.8 °F 19.0 °F 43% 30.14 in 10.0 mi SSE 15.0 mph 21.9 mph N/A   Clear
1:52 PM 43.0 °F 35.4 °F 19.9 °F 40% 30.10 in 10.0 mi South 16.1 mph - N/A   Clear
2:52 PM 41.0 °F 34.3 °F 19.9 °F 43% 30.07 in 10.0 mi South 11.5 mph - N/A   Clear
3:52 PM 44.1 °F 39.5 °F 21.0 °F 40% 30.04 in 10.0 mi South 8.1 mph - N/A   Clear
4:52 PM 43.0 °F 40.3 °F 21.0 °F 42% 30.06 in 10.0 mi SSE 4.6 mph - N/A   Clear
5:52 PM 39.9 °F 35.8 °F 24.1 °F 53% 30.07 in 10.0 mi East 5.8 mph - N/A   Clear
6:52 PM 32.0 °F 23.6 °F 21.0 °F 64% 30.08 in 10.0 mi SE 10.4 mph - N/A   Clear
7:52 PM 32.0 °F 26.4 °F 21.0 °F 64% 30.12 in 10.0 mi East 5.8 mph - N/A   Clear
8:52 PM 30.0 °F 20.0 °F 21.0 °F 69% 30.18 in 10.0 mi NNE 12.7 mph - N/A   Clear
9:52 PM 28.0 °F 18.6 °F 21.0 °F 75% 30.22 in 10.0 mi NNE 10.4 mph - N/A   Clear
10:52 PM 28.9 °F 14.8 °F 21.0 °F 72% 30.27 in 10.0 mi North 24.2 mph 28.8 mph N/A   Clear
11:52 PM 25.0 °F 11.3 °F 17.1 °F 72% 30.30 in 10.0 mi North 18.4 mph - N/A   Clear